HLE07 EGSR-EGSR

Flight info

Callsign HLE07
Flight time 1h 2m
Altitude 1500
Route VFR HEMS
Aircraft A169/L-V/N

Departure

Time 2026-04-12 15:48
Airport Earls Colne Airfield (EGSR)

Arrival

Time 2026-04-12 16:50
Airport Earls Colne Airfield (EGSR)
Time Latitude Longitude Altitude Speed Heading
2026-04-12 15:43 51.91187 0.67675 229 ft 0 kts 210°
2026-04-12 15:47 51.91192 0.67667 235 ft 5 kts 301°
2026-04-12 15:47 51.91246 0.67745 237 ft 15 kts 63°
2026-04-12 15:47 51.91301 0.67898 238 ft 15 kts 65°
2026-04-12 15:48 51.91345 0.68022 247 ft 2 kts 288°
2026-04-12 15:48 51.91286 0.67860 377 ft 48 kts 242°
2026-04-12 15:48 51.90989 0.67170 634 ft 94 kts 230°
2026-04-12 15:48 51.90407 0.66775 1121 ft 86 kts 200°
2026-04-12 15:49 51.89837 0.66430 1100 ft 99 kts 204°
2026-04-12 15:49 51.89101 0.66034 1054 ft 126 kts 202°
2026-04-12 15:49 51.88213 0.65597 1179 ft 136 kts 199°
2026-04-12 15:49 51.87316 0.65091 1232 ft 135 kts 200°
2026-04-12 15:50 51.86436 0.64581 1209 ft 135 kts 200°
2026-04-12 15:50 51.85549 0.64068 1192 ft 136 kts 200°
2026-04-12 15:50 51.84660 0.63552 1183 ft 136 kts 200°
2026-04-12 15:50 51.83764 0.63033 1177 ft 136 kts 200°
2026-04-12 15:51 51.82870 0.62514 1185 ft 135 kts 200°
2026-04-12 15:51 51.81988 0.62006 1191 ft 136 kts 200°
2026-04-12 15:51 51.81097 0.61493 1187 ft 135 kts 200°
2026-04-12 15:51 51.80210 0.60986 1192 ft 134 kts 200°
2026-04-12 15:52 51.79323 0.60480 1186 ft 135 kts 200°
2026-04-12 15:52 51.78430 0.59972 1191 ft 135 kts 200°
2026-04-12 15:52 51.77542 0.59469 1194 ft 135 kts 200°
2026-04-12 15:52 51.76659 0.58963 1203 ft 134 kts 200°
2026-04-12 15:53 51.75769 0.58455 1191 ft 135 kts 200°
2026-04-12 15:53 51.74888 0.57952 1188 ft 135 kts 200°
2026-04-12 15:53 51.73995 0.57443 1182 ft 135 kts 200°
2026-04-12 15:53 51.73113 0.56943 1186 ft 135 kts 200°
2026-04-12 15:54 51.72224 0.56442 1199 ft 134 kts 200°
2026-04-12 15:54 51.71339 0.55942 1191 ft 134 kts 200°
2026-04-12 15:54 51.70461 0.55440 1188 ft 135 kts 200°
2026-04-12 15:54 51.69581 0.54930 1180 ft 136 kts 200°
2026-04-12 15:55 51.68689 0.54417 1196 ft 135 kts 200°
2026-04-12 15:55 51.67804 0.53910 1204 ft 135 kts 200°
2026-04-12 15:55 51.66913 0.53402 1204 ft 135 kts 200°
2026-04-12 15:55 51.66021 0.52894 1208 ft 135 kts 200°
2026-04-12 15:56 51.65163 0.52410 1194 ft 135 kts 200°
2026-04-12 15:56 51.64282 0.51915 1183 ft 135 kts 200°
2026-04-12 15:56 51.63390 0.51417 1196 ft 135 kts 200°
2026-04-12 15:56 51.62497 0.50920 1198 ft 135 kts 200°
2026-04-12 15:57 51.61604 0.50421 1212 ft 135 kts 200°
2026-04-12 15:57 51.60720 0.49924 1207 ft 135 kts 200°
2026-04-12 15:57 51.59831 0.49423 1136 ft 136 kts 199°
2026-04-12 15:57 51.58967 0.48794 895 ft 139 kts 205°
2026-04-12 15:58 51.58109 0.48061 688 ft 138 kts 206°
2026-04-12 15:58 51.57280 0.47408 550 ft 126 kts 200°
2026-04-12 15:58 51.56541 0.47564 653 ft 105 kts 123°
2026-04-12 15:58 51.56960 0.48170 546 ft 96 kts 327°
2026-04-12 15:59 51.57008 0.47452 458 ft 78 kts 217°
2026-04-12 15:59 51.56526 0.47661 449 ft 94 kts 114°
2026-04-12 15:59 51.57005 0.48169 465 ft 93 kts 349°
2026-04-12 15:59 51.57311 0.47608 347 ft 57 kts 240°
2026-04-12 16:00 51.57138 0.47424 240 ft 26 kts 182°
2026-04-12 16:00 51.57010 0.47420 159 ft 11 kts 201°
2026-04-12 16:00 51.56976 0.47410 111 ft 3 kts 344°
2026-04-12 16:00 51.56982 0.47400 111 ft 0 kts 358°
2026-04-12 16:01 51.56984 0.47400 111 ft 0 kts 351°
2026-04-12 16:01 51.56984 0.47399 111 ft 0 kts 345°
2026-04-12 16:40 51.56998 0.47397 125 ft 2 kts 185°
2026-04-12 16:40 51.57039 0.47403 269 ft 15 kts 180°
2026-04-12 16:41 51.56941 0.47414 443 ft 54 kts 195°
2026-04-12 16:41 51.56618 0.46838 664 ft 98 kts 254°
2026-04-12 16:41 51.57231 0.45988 757 ft 150 kts 342°
2026-04-12 16:41 51.58300 0.46204 944 ft 164 kts 22°
2026-04-12 16:42 51.59351 0.46971 1198 ft 167 kts 23°
2026-04-12 16:42 51.60399 0.47815 1235 ft 169 kts 24°
2026-04-12 16:42 51.61448 0.48676 1216 ft 169 kts 23°
2026-04-12 16:43 51.64639 0.51102 1186 ft 169 kts 21°
2026-04-12 16:43 51.65699 0.51887 1192 ft 168 kts 19°
2026-04-12 16:43 51.66785 0.52618 1191 ft 167 kts 18°
2026-04-12 16:44 51.67858 0.53330 1186 ft 167 kts 18°
2026-04-12 16:44 51.68930 0.54043 1175 ft 168 kts 18°
2026-04-12 16:44 51.70013 0.54763 1175 ft 168 kts 18°
2026-04-12 16:44 51.71106 0.55487 1157 ft 169 kts 18°
2026-04-12 16:45 51.72196 0.56219 1176 ft 169 kts 18°
2026-04-12 16:45 51.73270 0.56947 1185 ft 169 kts 18°
2026-04-12 16:45 51.74353 0.57672 1190 ft 168 kts 18°
2026-04-12 16:45 51.75432 0.58396 1189 ft 167 kts 18°
2026-04-12 16:46 51.76507 0.59119 1167 ft 168 kts 18°
2026-04-12 16:46 51.77583 0.59837 1167 ft 168 kts 18°
2026-04-12 16:46 51.78672 0.60564 1167 ft 168 kts 18°
2026-04-12 16:46 51.79758 0.61283 1174 ft 167 kts 18°
2026-04-12 16:47 51.80826 0.61989 1188 ft 167 kts 18°
2026-04-12 16:47 51.81901 0.62702 1201 ft 167 kts 18°
2026-04-12 16:47 51.82970 0.63414 1209 ft 167 kts 18°
2026-04-12 16:47 51.84053 0.64135 1204 ft 167 kts 18°
2026-04-12 16:48 51.85128 0.64851 1202 ft 167 kts 18°
2026-04-12 16:48 51.86205 0.65567 1195 ft 167 kts 18°
2026-04-12 16:48 51.87272 0.66274 1205 ft 167 kts 18°
2026-04-12 16:48 51.88350 0.66992 1203 ft 166 kts 18°
2026-04-12 16:49 51.89408 0.67678 1115 ft 154 kts 12°
2026-04-12 16:49 51.90288 0.68507 803 ft 143 kts 42°
2026-04-12 16:49 51.90791 0.69748 728 ft 123 kts 50°
2026-04-12 16:49 51.91383 0.70567 626 ft 102 kts
2026-04-12 16:50 51.91893 0.70295 561 ft 67 kts 289°
2026-04-12 16:50 51.91892 0.69595 451 ft 63 kts 237°
2026-04-12 16:50 51.91688 0.69002 352 ft 59 kts 240°
2026-04-12 16:50 51.91500 0.68471 278 ft 48 kts 242°
2026-04-12 16:51 51.91357 0.68053 266 ft 37 kts 241°
2026-04-12 16:51 51.91243 0.67766 255 ft 20 kts 223°
2026-04-12 16:51 51.91192 0.67677 235 ft 1 kts 212°
2026-04-12 16:51 51.91188 0.67673 230 ft 0 kts 212°
2026-04-12 16:52 51.91195 0.67683 236 ft 1 kts 216°
2026-04-12 16:52 51.91188 0.67676 230 ft 0 kts 214°
2026-04-12 16:52 51.91188 0.67675 230 ft 0 kts 216°
2026-04-12 17:09 51.91216 0.67687 238 ft 11 kts 39°
2026-04-12 17:09 51.91269 0.67818 237 ft 17 kts 64°
2026-04-12 17:09 51.91327 0.67975 246 ft 3 kts 285°
2026-04-12 17:10 51.91227 0.67694 462 ft 61 kts 243°
2026-04-12 17:10 51.90883 0.66981 787 ft 93 kts 222°
2026-04-12 17:10 51.90403 0.66397 1201 ft 83 kts 218°
2026-04-12 17:10 51.89908 0.65704 1107 ft 107 kts 219°
2026-04-12 17:11 51.89289 0.64871 1107 ft 125 kts 219°
2026-04-12 17:11 51.88564 0.63963 1159 ft 137 kts 218°
2026-04-12 17:11 51.87814 0.62997 1228 ft 136 kts 217°
2026-04-12 17:11 51.87077 0.62036 1228 ft 136 kts 217°
2026-04-12 17:12 51.86340 0.61075 1212 ft 136 kts 217°
2026-04-12 17:12 51.85592 0.60115 1203 ft 136 kts 217°
2026-04-12 17:12 51.84852 0.59152 1200 ft 136 kts 217°
2026-04-12 17:12 51.84117 0.58193 1208 ft 136 kts 217°
2026-04-12 17:13 51.83378 0.57232 1207 ft 135 kts 217°
2026-04-12 17:13 51.82650 0.56290 1203 ft 136 kts 217°
2026-04-12 17:13 51.81911 0.55337 1205 ft 135 kts 217°
2026-04-12 17:13 51.81164 0.54384 1200 ft 136 kts 217°
2026-04-12 17:14 51.80418 0.53432 1206 ft 136 kts 217°
2026-04-12 17:14 51.79674 0.52475 1207 ft 136 kts 217°
2026-04-12 17:14 51.78939 0.51529 1205 ft 136 kts 217°
2026-04-12 17:14 51.78196 0.50585 1198 ft 137 kts 217°
2026-04-12 17:15 51.77445 0.49641 1200 ft 137 kts 217°
2026-04-12 17:15 51.76685 0.48697 1211 ft 137 kts 217°
2026-04-12 17:15 51.75941 0.47764 1264 ft 133 kts 217°
2026-04-12 17:15 51.75216 0.46860 1163 ft 130 kts 217°
2026-04-12 17:16 51.74587 0.45843 895 ft 128 kts 222°
2026-04-12 17:16 51.73974 0.45631 1033 ft 93 kts 122°
2026-04-12 17:16 51.74344 0.46169 723 ft 81 kts 313°
2026-04-12 17:16 51.74338 0.45566 513 ft 56 kts 207°
2026-04-12 17:17 51.74009 0.45749 451 ft 64 kts 132°
2026-04-12 17:17 51.74206 0.46248 359 ft 51 kts 355°
2026-04-12 17:17 51.74321 0.45891 327 ft 45 kts 256°
2026-04-12 17:17 51.74113 0.45600 444 ft 31 kts 214°
2026-04-12 17:18 51.74009 0.45485 275 ft 11 kts 203°
2026-04-12 17:18 51.73951 0.45421 143 ft 4 kts 244°
2026-04-12 17:18 51.73950 0.45426 137 ft 7 kts 31°
2026-04-12 17:18 51.73962 0.45442 115 ft 3 kts 33°
2026-04-12 17:19 51.73963 0.45445 111 ft 0 kts 25°
2026-04-12 17:45 51.73965 0.45440 114 ft 8 kts 230°
2026-04-12 17:46 51.73986 0.45448 280 ft 20 kts 224°
2026-04-12 17:46 51.73886 0.45229 413 ft 73 kts 250°
2026-04-12 17:46 51.74252 0.44510 726 ft 123 kts 345°
2026-04-12 17:46 51.75082 0.45167 963 ft 146 kts 40°
2026-04-12 17:47 51.75899 0.46313 1116 ft 162 kts 41°
2026-04-12 17:47 51.76723 0.47570 1178 ft 164 kts 41°
2026-04-12 17:47 51.77558 0.48835 1153 ft 165 kts 40°
2026-04-12 17:47 51.78398 0.50118 1134 ft 166 kts 41°
2026-04-12 17:48 51.79223 0.51411 1135 ft 164 kts 41°
2026-04-12 17:48 51.80046 0.52677 1119 ft 165 kts 41°
2026-04-12 17:48 51.80871 0.53968 1108 ft 164 kts 41°
2026-04-12 17:48 51.81694 0.55255 1100 ft 165 kts 41°
2026-04-12 17:49 51.82535 0.56529 1104 ft 165 kts 40°
2026-04-12 17:49 51.83388 0.57778 1104 ft 166 kts 40°
2026-04-12 17:49 51.84248 0.59032 1094 ft 167 kts 40°
2026-04-12 17:49 51.85113 0.60293 1111 ft 166 kts 40°
2026-04-12 17:50 51.85960 0.61536 1100 ft 166 kts 40°
2026-04-12 17:50 51.86814 0.62794 1086 ft 166 kts 40°
2026-04-12 17:50 51.87654 0.64027 1182 ft 154 kts 38°
2026-04-12 17:50 51.88405 0.65188 1099 ft 146 kts 39°
2026-04-12 17:51 51.89137 0.66306 1043 ft 144 kts 39°
2026-04-12 17:51 51.89863 0.67386 1027 ft 141 kts 40°
2026-04-12 17:51 51.90415 0.68685 873 ft 135 kts 55°
2026-04-12 17:51 51.90902 0.69912 743 ft 127 kts 51°
2026-04-12 17:52 51.91471 0.70834 684 ft 102 kts
2026-04-12 17:52 51.91956 0.70617 606 ft 66 kts 292°
2026-04-12 17:52 51.91985 0.69866 501 ft 69 kts 242°
2026-04-12 17:52 51.91762 0.69218 370 ft 64 kts 236°
2026-04-12 17:53 51.91559 0.68645 264 ft 52 kts 237°
2026-04-12 17:53 51.91396 0.68180 262 ft 40 kts 241°
2026-04-12 17:53 51.91286 0.67867 245 ft 25 kts 240°
2026-04-12 17:53 51.91206 0.67699 236 ft 11 kts 221°
2026-04-12 17:54 51.91190 0.67675 237 ft 2 kts 211°
2026-04-12 17:54 51.91188 0.67675 231 ft 0 kts 223°
2026-04-12 18:33 51.91187 0.67675 231 ft 0 kts 217°
2026-04-12 18:34 51.91198 0.67664 245 ft 6 kts 15°
2026-04-12 18:34 51.91254 0.67782 242 ft 18 kts 62°
2026-04-12 18:34 51.91319 0.67971 255 ft 9 kts 291°
2026-04-12 18:34 51.91233 0.67736 415 ft 62 kts 240°
2026-04-12 18:35 51.90915 0.66919 751 ft 100 kts 231°
2026-04-12 18:35 51.90309 0.66556 1189 ft 92 kts 187°
2026-04-12 18:35 51.89725 0.66993 1140 ft 111 kts 141°
2026-04-12 18:35 51.89422 0.68253 1145 ft 129 kts 97°
2026-04-12 18:36 51.89498 0.69218 1191 ft 130 kts 82°
2026-04-12 18:37 51.90235 0.76588 1200 ft 161 kts 83°
2026-04-12 18:37 51.90421 0.78379 1209 ft 161 kts 81°
2026-04-12 18:37 51.90630 0.80163 1205 ft 161 kts 81°
2026-04-12 18:37 51.90847 0.81940 1195 ft 162 kts 79°
2026-04-12 18:38 51.91092 0.83721 1210 ft 161 kts 79°
2026-04-12 18:38 51.91339 0.85501 1199 ft 162 kts 79°
2026-04-12 18:38 51.91588 0.87285 1187 ft 163 kts 79°
2026-04-12 18:38 51.91835 0.89073 1190 ft 162 kts 79°
2026-04-12 18:39 51.92086 0.90849 1189 ft 162 kts 78°
2026-04-12 18:39 51.92344 0.92634 1192 ft 162 kts 78°
2026-04-12 18:39 51.92603 0.94414 1187 ft 162 kts 78°
2026-04-12 18:39 51.92866 0.96204 1234 ft 164 kts 77°
2026-04-12 18:40 51.93114 0.97981 1270 ft 161 kts 77°
2026-04-12 18:40 51.93354 0.99743 1228 ft 161 kts 77°
2026-04-12 18:40 51.93595 1.01532 1211 ft 161 kts 77°
2026-04-12 18:40 51.93831 1.03299 1167 ft 162 kts 79°
2026-04-12 18:41 51.93967 1.05100 908 ft 160 kts 82°
2026-04-12 18:41 51.94451 1.06135 1063 ft 92 kts 334°
2026-04-12 18:41 51.94614 1.05310 653 ft 84 kts 232°
2026-04-12 18:41 51.94243 1.05087 554 ft 38 kts 128°
2026-04-12 18:42 51.94245 1.05384 571 ft 36 kts 139°
2026-04-12 18:42 51.94340 1.05740 958 ft 62 kts 87°
2026-04-12 18:42 51.94854 1.06067 875 ft 114 kts 306°
2026-04-12 18:43 51.94201 1.06477 827 ft 121 kts 34°
2026-04-12 18:43 51.94743 1.06904 758 ft 61 kts 275°
2026-04-12 18:43 51.94735 1.06365 594 ft 55 kts 219°
2026-04-12 18:44 51.94501 1.05951 293 ft 43 kts 203°
2026-04-12 18:44 51.94353 1.05771 135 ft 13 kts 201°
2026-04-12 18:44 51.94316 1.05737 109 ft 2 kts 180°
2026-04-12 18:44 51.94309 1.05739 97 ft 0 kts 174°
2026-04-12 19:17 51.94310 1.05740 118 ft 2 kts 187°
2026-04-12 19:17 51.94345 1.05765 252 ft 12 kts 206°
2026-04-12 19:17 51.94179 1.05646 410 ft 64 kts 220°
2026-04-12 19:17 51.93942 1.04869 720 ft 92 kts 262°
2026-04-12 19:18 51.94156 1.03872 1090 ft 95 kts 291°
2026-04-12 19:18 51.94489 1.02928 1132 ft 108 kts 292°
2026-04-12 19:18 51.94870 1.01766 1167 ft 124 kts 290°
2026-04-12 19:18 51.95286 1.00485 1126 ft 137 kts 289°
2026-04-12 19:19 51.95707 0.99015 1173 ft 144 kts 289°
2026-04-12 19:19 51.96128 0.97531 1218 ft 145 kts 287°
2026-04-12 19:19 51.96532 0.96034 1211 ft 145 kts 287°
2026-04-12 19:19 51.96928 0.94532 1214 ft 145 kts 285°
2026-04-12 19:20 51.97317 0.93024 1199 ft 145 kts 286°
2026-04-12 19:20 51.97703 0.91517 1187 ft 145 kts 285°
2026-04-12 19:20 51.98087 0.90000 1194 ft 145 kts 285°
2026-04-12 19:20 51.98469 0.88501 1199 ft 145 kts 285°
2026-04-12 19:21 51.98852 0.86991 1193 ft 144 kts 285°
2026-04-12 19:21 51.99234 0.85478 1187 ft 144 kts 286°
2026-04-12 19:21 51.99614 0.83964 1172 ft 145 kts 285°
2026-04-12 19:21 51.99992 0.82466 1181 ft 145 kts 285°
2026-04-12 19:22 52.00375 0.80955 1186 ft 145 kts 286°
2026-04-12 19:22 52.00762 0.79440 1191 ft 145 kts 286°
2026-04-12 19:22 52.01152 0.77925 1191 ft 146 kts 286°
2026-04-12 19:22 52.01540 0.76415 1201 ft 145 kts 285°
2026-04-12 19:23 52.01934 0.74891 1191 ft 145 kts 286°
2026-04-12 19:23 52.02322 0.73371 1192 ft 145 kts 286°
2026-04-12 19:23 52.02710 0.71852 1190 ft 146 kts 286°
2026-04-12 19:23 52.03094 0.70348 1194 ft 146 kts 286°
2026-04-12 19:24 52.03480 0.68811 1199 ft 146 kts 286°
2026-04-12 19:24 52.03863 0.67290 1210 ft 146 kts 285°
2026-04-12 19:24 52.04246 0.65764 1205 ft 146 kts 285°
2026-04-12 19:24 52.04628 0.64238 1201 ft 145 kts 286°
2026-04-12 19:25 52.05004 0.62721 1198 ft 145 kts 286°
2026-04-12 19:25 52.05379 0.61209 1188 ft 145 kts 286°
2026-04-12 19:25 52.05754 0.59689 1190 ft 145 kts 286°
2026-04-12 19:25 52.06133 0.58176 1191 ft 145 kts 286°
2026-04-12 19:26 52.06516 0.56648 1195 ft 145 kts 286°
2026-04-12 19:26 52.06902 0.55121 1193 ft 146 kts 286°
2026-04-12 19:26 52.07287 0.53597 1197 ft 146 kts 286°
2026-04-12 19:26 52.07670 0.52065 1195 ft 146 kts 286°
2026-04-12 19:27 52.08051 0.50544 1191 ft 146 kts 286°
2026-04-12 19:27 52.08433 0.49009 1194 ft 146 kts 286°
2026-04-12 19:27 52.08813 0.47470 1188 ft 146 kts 285°
2026-04-12 19:27 52.09190 0.45939 1199 ft 146 kts 286°
2026-04-12 19:28 52.09563 0.44400 1198 ft 146 kts 286°
2026-04-12 19:28 52.09934 0.42876 1199 ft 145 kts 286°
2026-04-12 19:28 52.10303 0.41352 1187 ft 145 kts 286°
2026-04-12 19:28 52.10678 0.39815 1182 ft 145 kts 286°
2026-04-12 19:29 52.11054 0.38286 1184 ft 145 kts 286°
2026-04-12 19:29 52.11435 0.36744 1185 ft 145 kts 286°
2026-04-12 19:29 52.11812 0.35228 1181 ft 146 kts 286°
2026-04-12 19:29 52.12194 0.33699 1194 ft 145 kts 285°
2026-04-12 19:30 52.12574 0.32171 1182 ft 145 kts 285°
2026-04-12 19:30 52.12959 0.30632 1185 ft 145 kts 285°
2026-04-12 19:30 52.13300 0.29259 1186 ft 145 kts 285°
2026-04-12 19:30 52.13679 0.27715 1190 ft 145 kts 285°
2026-04-12 19:31 52.14053 0.26190 1191 ft 145 kts 285°
2026-04-12 19:31 52.14427 0.24651 1187 ft 145 kts 285°
2026-04-12 19:31 52.14798 0.23123 1183 ft 145 kts 285°
2026-04-12 19:31 52.15166 0.21594 1180 ft 145 kts 285°
2026-04-12 19:32 52.15531 0.20060 1187 ft 145 kts 285°
2026-04-12 19:32 52.15883 0.18529 1118 ft 143 kts 282°
2026-04-12 19:32 52.16199 0.17011 952 ft 138 kts 288°
2026-04-12 19:32 52.16745 0.15837 742 ft 124 kts 307°
2026-04-12 19:33 52.17276 0.14889 555 ft 98 kts 282°
2026-04-12 19:33 52.17256 0.14023 436 ft 56 kts 243°
2026-04-12 19:33 52.17206 0.13738 289 ft 13 kts 264°
2026-04-12 19:33 52.17168 0.13612 142 ft 14 kts 246°
2026-04-12 19:34 52.17142 0.13544 73 ft 2 kts 245°
2026-04-12 19:34 52.17136 0.13538 55 ft 0 kts 247°
2026-04-12 19:34 52.17135 0.13537 53 ft 0 kts 242°
2026-04-12 19:34 52.17135 0.13536 53 ft 0 kts 244°
2026-04-12 19:50 52.17139 0.13539 73 ft 3 kts 244°
2026-04-12 19:51 52.17164 0.13620 255 ft 10 kts 244°
2026-04-12 19:51 52.17081 0.13436 503 ft 56 kts 224°
2026-04-12 19:51 52.16526 0.13126 874 ft 103 kts 171°
2026-04-12 19:51 52.15925 0.13716 1202 ft 108 kts 118°
2026-04-12 19:52 52.15422 0.14869 1231 ft 132 kts 122°
2026-04-12 19:52 52.14897 0.16206 1134 ft 147 kts 124°
2026-04-12 19:52 52.14337 0.17639 1170 ft 154 kts 124°
2026-04-12 19:52 52.13755 0.19119 1217 ft 154 kts 124°
2026-04-12 19:53 52.13173 0.20590 1233 ft 154 kts 124°
2026-04-12 19:53 52.12593 0.22046 1222 ft 154 kts 124°
2026-04-12 19:53 52.12009 0.23516 1216 ft 154 kts 124°
2026-04-12 19:53 52.11420 0.24991 1204 ft 155 kts 124°
2026-04-12 19:54 52.10836 0.26448 1205 ft 154 kts 124°
2026-04-12 19:54 52.10245 0.27913 1207 ft 154 kts 124°
2026-04-12 19:54 52.09654 0.29377 1205 ft 154 kts 124°
2026-04-12 19:54 52.09055 0.30808 1207 ft 153 kts 125°
2026-04-12 19:55 52.08456 0.32228 1197 ft 153 kts 125°
2026-04-12 19:55 52.07855 0.33654 1188 ft 153 kts 125°
2026-04-12 19:55 52.07251 0.35084 1200 ft 153 kts 125°
2026-04-12 19:55 52.06652 0.36505 1213 ft 152 kts 125°
2026-04-12 19:56 52.06056 0.37928 1202 ft 152 kts 125°
2026-04-12 19:56 52.05462 0.39337 1189 ft 152 kts 125°
2026-04-12 19:56 52.04861 0.40776 1174 ft 153 kts 125°
2026-04-12 19:56 52.04263 0.42209 1177 ft 153 kts 125°
2026-04-12 19:57 52.03667 0.43636 1172 ft 153 kts 125°
2026-04-12 19:57 52.03072 0.45066 1179 ft 153 kts 125°
2026-04-12 19:57 52.02482 0.46482 1182 ft 153 kts 125°
2026-04-12 19:57 52.01885 0.47910 1172 ft 153 kts 125°
2026-04-12 19:58 52.01288 0.49342 1172 ft 153 kts 125°
2026-04-12 19:58 52.00686 0.50780 1172 ft 153 kts 125°
2026-04-12 19:58 52.00088 0.52205 1178 ft 152 kts 125°
2026-04-12 19:58 51.99491 0.53627 1175 ft 152 kts 125°
2026-04-12 19:59 51.98891 0.55050 1176 ft 153 kts 125°
2026-04-12 19:59 51.98291 0.56477 1182 ft 152 kts 125°
2026-04-12 19:59 51.97694 0.57891 1187 ft 152 kts 125°
2026-04-12 19:59 51.97093 0.59306 1180 ft 153 kts 126°
2026-04-12 20:00 51.96480 0.60701 1180 ft 153 kts 126°
2026-04-12 20:00 51.95854 0.62102 1176 ft 153 kts 127°
2026-04-12 20:00 51.95224 0.63502 1187 ft 153 kts 127°
2026-04-12 20:00 51.94598 0.64899 1192 ft 153 kts 127°
2026-04-12 20:01 51.93975 0.66290 1194 ft 153 kts 128°
2026-04-12 20:01 51.93344 0.67698 1187 ft 152 kts 126°
2026-04-12 20:01 51.92757 0.69062 910 ft 141 kts 123°
2026-04-12 20:01 51.92129 0.69800 928 ft 88 kts 215°
2026-04-12 20:02 51.91755 0.69226 655 ft 72 kts 242°
2026-04-12 20:02 51.91539 0.68559 356 ft 62 kts 240°
2026-04-12 20:02 51.91356 0.68032 279 ft 41 kts 235°
2026-04-12 20:02 51.91244 0.67752 253 ft 19 kts 222°
2026-04-12 20:03 51.91199 0.67686 240 ft 2 kts 213°
2026-04-12 20:03 51.91189 0.67676 234 ft 0 kts 217°